TimeEST,TemperatureF,Dew PointF,Humidity,Sea Level PressureIn,VisibilityMPH,Wind Direction,Wind SpeedMPH,Gust SpeedMPH,PrecipitationIn,Events,Conditions,WindDirDegrees,DateUTC
12:53 AM,19.0,14.0,81,29.75,10.0,NW,3.5,-,N/A,,Clear,320,2014-01-27 05:53:00
1:53 AM,18.0,12.9,81,29.74,10.0,WNW,3.5,-,N/A,,Clear,300,2014-01-27 06:53:00
2:53 AM,18.0,12.9,81,29.72,10.0,Calm,Calm,-,N/A,,Partly Cloudy,0,2014-01-27 07:53:00
3:53 AM,19.0,14.0,81,29.68,10.0,Calm,Calm,-,N/A,,Partly Cloudy,0,2014-01-27 08:53:00
4:53 AM,19.0,14.0,81,29.66,10.0,Calm,Calm,-,N/A,,Clear,0,2014-01-27 09:53:00
5:53 AM,19.9,15.1,81,29.64,10.0,Calm,Calm,-,N/A,,Mostly Cloudy,0,2014-01-27 10:53:00
6:53 AM,21.9,16.0,78,29.63,10.0,Calm,Calm,-,N/A,,Overcast,0,2014-01-27 11:53:00
7:53 AM,24.1,17.1,75,29.64,10.0,Calm,Calm,-,N/A,,Overcast,0,2014-01-27 12:53:00
8:53 AM,26.1,18.0,71,29.65,10.0,Calm,Calm,-,N/A,,Overcast,0,2014-01-27 13:53:00
9:53 AM,30.9,19.9,64,29.64,10.0,Calm,Calm,-,N/A,,Mostly Cloudy,0,2014-01-27 14:53:00
10:53 AM,33.1,21.9,64,29.65,10.0,South,3.5,-,N/A,,Clear,170,2014-01-27 15:53:00
11:53 AM,39.0,21.9,50,29.68,10.0,West,8.1,-,N/A,,Clear,280,2014-01-27 16:53:00
12:53 PM,37.9,24.1,57,29.71,10.0,NW,17.3,25.3,N/A,,Overcast,310,2014-01-27 17:53:00
1:53 PM,36.0,18.0,48,29.74,10.0,WNW,17.3,33.4,N/A,,Overcast,290,2014-01-27 18:53:00
2:53 PM,32.0,10.9,42,29.78,10.0,WNW,13.8,26.5,N/A,,Overcast,290,2014-01-27 19:53:00
3:53 PM,28.9,6.1,38,29.84,10.0,WNW,9.2,21.9,N/A,,Overcast,290,2014-01-27 20:53:00
4:53 PM,28.0,7.0,41,29.88,10.0,Variable,4.6,-,N/A,,Overcast,0,2014-01-27 21:53:00
5:53 PM,26.1,3.9,39,29.91,10.0,WNW,4.6,-,N/A,,Clear,300,2014-01-27 22:53:00
6:53 PM,26.1,-0.9,31,29.97,10.0,NNW,9.2,-,N/A,,Scattered Clouds,330,2014-01-27 23:53:00
7:53 PM,25.0,-0.9,33,30.00,10.0,NNW,9.2,-,N/A,,Clear,340,2014-01-28 00:53:00
8:53 PM,23.0,-2.0,34,30.03,10.0,NW,11.5,-,N/A,,Clear,310,2014-01-28 01:53:00
9:53 PM,21.9,-2.9,34,30.06,10.0,NW,15.0,23.0,N/A,,Clear,320,2014-01-28 02:53:00
10:53 PM,21.0,-2.0,36,30.09,10.0,NW,11.5,-,N/A,,Clear,320,2014-01-28 03:53:00
11:53 PM,19.9,-2.0,38,30.11,10.0,NNW,6.9,-,N/A,,Clear,340,2014-01-28 04:53:00